Lapse_Rate
3.8 3.1 2.6 2.9 3.3 3.1 3.0 3.1 3.8 4.7 5.8 6.9 7.0 7.1 7.1 6.8 6.3 5.4 4.2 3.5 3.1 3.2 3.9 4.4 4.1 4.6 4.9 5.0 5.4 5.5 6.1 5.9 5.8 5.9 6.2 6.2 6.1 6.2 6.4 6.4 6.3 6.4 6.7 6.7 7.0 6.9 6.9
3.3 2.6 2.5 3.0 3.1 3.0 3.1 3.6 4.7 5.8 6.8 7.3 7.2 7.1 7.0 7.1 7.1 7.1 6.2 5.0 3.7 3.3 3.6 4.7 4.6 4.1 4.7 4.8 5.6 5.2 5.4 6.0 6.0 5.8 6.2 6.1 6.1 6.5 6.4 6.5 6.5 6.3 6.6 6.6 6.7 7.1 7.0
3.2 2.4 2.6 3.0 3.0 3.0 3.3 4.2 5.6 6.7 7.3 7.3 7.4 7.2 7.2 7.2 7.1 7.3 7.6 6.5 5.1 4.1 3.9 4.5 5.1 4.2 3.8 5.2 5.3 5.1 5.6 5.8 6.0 5.9 5.9 6.2 6.3 6.2 5.9 6.2 6.3 6.1 6.5 6.3 6.5 7.0 6.9
2.5 2.3 2.5 2.9 3.0 3.1 3.5 4.8 6.2 7.2 7.4 7.4 7.4 7.3 7.3 7.2 7.1 7.2 7.4 7.4 6.7 5.1 4.7 5.1 5.3 4.6 3.5 5.3 5.3 5.4 5.4 5.7 5.6 6.2 5.8 6.0 5.6 5.8 5.8 6.1 6.0 6.0 6.2 6.2 6.4 6.9 6.8
2.3 1.8 2.3 2.9 3.2 3.2 4.1 5.5 6.7 7.4 7.5 7.4 7.5 7.4 7.4 7.3 7.1 7.0 7.3 7.4 7.6 6.7 5.7 5.7 5.1 4.9 3.8 5.4 5.0 5.8 5.5 5.6 5.7 6.0 5.9 5.8 5.0 5.7 5.9 6.1 5.8 6.0 5.8 6.0 6.0 6.6 6.9
2.2 1.7 2.2 2.7 3.1 3.4 4.4 5.9 7.0 7.4 7.5 7.4 7.5 7.5 7.4 7.3 7.1 6.9 7.2 7.5 7.8 7.9 7.2 5.3 5.6 4.5 3.7 5.2 5.8 5.9 5.6 5.8 5.9 5.8 5.7 5.7 5.2 5.6 5.4 5.6 5.2 5.7 5.7 6.0 6.2 6.5 6.5
2.3 2.2 2.3 2.5 2.9 3.4 4.5 6.0 7.0 7.3 7.5 7.5 7.4 7.4 7.4 7.3 7.1 7.1 7.3 7.6 7.8 8.1 7.6 6.1 5.4 4.8 4.6 4.7 6.1 6.1 5.8 6.0 6.0 5.7 5.4 5.4 5.6 5.2 5.3 5.8 6.1 6.3 6.6 6.6 6.6 6.8 6.9
2.3 2.2 2.4 2.5 2.9 3.3 4.4 6.0 6.9 7.3 7.5 7.6 7.5 7.5 7.5 7.4 7.3 7.2 7.4 7.4 7.5 7.7 8.0 7.3 5.5 5.1 5.6 4.5 4.8 5.8 6.5 6.3 5.9 5.6 5.1 5.3 5.2 5.7 6.0 6.1 6.2 6.4 6.6 6.8 6.9 6.8 7.0
2.4 2.2 2.3 2.3 2.8 3.3 4.2 5.8 6.9 7.1 7.4 7.5 7.6 7.5 7.5 7.5 7.4 7.4 7.3 7.3 7.5 7.8 7.6 8.0 6.9 6.4 6.4 5.2 4.7 5.7 5.5 6.2 6.2 6.2 5.4 5.2 5.0 5.8 6.2 6.1 6.0 6.7 6.6 6.6 6.9 7.0 6.6
2.6 1.9 2.0 2.2 2.6 3.1 4.0 5.3 6.8 7.1 7.4 7.5 7.6 7.6 7.6 7.5 7.6 7.5 7.5 7.6 7.7 7.7 7.1 6.0 6.9 6.8 6.5 6.0 5.1 5.8 6.1 6.6 5.8 6.0 6.2 5.4 5.5 6.0 6.0 6.0 6.1 6.5 7.0 7.1 6.8 7.1 6.3
2.6 2.1 1.8 2.1 2.4 2.8 3.5 4.7 6.4 7.0 7.4 7.6 7.7 7.7 7.6 7.7 7.6 7.6 7.5 7.6 7.7 7.1 5.8 6.5 5.5 6.4 6.0 6.1 5.5 5.6 5.9 6.1 6.4 6.1 5.7 5.2 5.2 5.9 6.2 6.2 6.3 6.4 7.4 7.2 7.1 7.5 7.1
3.0 2.4 1.8 2.1 2.3 2.6 3.1 4.0 5.6 6.4 7.1 7.6 7.9 7.8 7.8 7.7 7.7 7.7 7.7 7.7 7.5 6.8 5.1 6.3 5.5 5.8 5.6 6.2 6.3 6.5 6.3 5.8 6.2 6.3 6.7 6.9 6.3 6.3 6.4 6.5 6.7 7.0 7.2 7.3 7.2 7.2 5.9
3.4 3.0 2.3 2.1 2.3 2.5 2.9 3.6 4.7 5.7 6.3 7.4 8.0 7.9 7.9 7.9 7.9 7.9 7.7 7.6 7.2 6.3 6.7 5.8 6.0 4.9 5.1 5.9 6.3 6.6 6.3 5.6 6.0 6.0 6.1 5.9 6.4 6.4 6.5 6.5 7.0 6.9 7.2 6.3 5.5 5.0 4.2
3.5 3.5 2.9 2.3 2.2 2.3 2.7 3.3 4.1 5.3 6.2 7.3 8.1 7.9 7.8 7.8 7.8 7.9 7.7 7.4 7.0 7.2 7.4 6.5 6.0 6.2 5.3 5.7 6.4 6.4 6.5 5.8 6.3 6.2 6.1 6.0 5.7 6.3 6.4 6.4 6.2 6.2 7.1 6.2 3.7 3.9 4.8
3.6 3.6 3.2 2.8 2.4 2.3 2.5 3.1 3.8 5.1 6.4 7.4 8.1 8.0 7.8 7.8 7.8 7.7 7.5 7.2 7.4 6.9 7.1 6.3 6.5 6.2 5.6 5.8 6.5 6.5 6.2 6.0 6.3 6.3 6.5 6.1 5.9 6.1 6.4 6.6 6.9 6.6 6.9 7.1 7.2 6.8 5.9
3.5 3.5 3.5 3.2 2.8 2.5 2.4 2.9 3.5 4.8 6.3 7.3 8.0 8.2 7.7 7.8 7.8 7.7 7.5 7.5 7.5 6.8 6.6 6.3 6.1 5.8 5.5 5.1 6.1 6.4 6.3 6.2 6.5 6.8 6.7 6.7 6.8 6.4 6.7 6.8 7.0 6.9 6.9 7.1 7.0 5.2 5.0
3.3 3.4 3.5 3.4 3.0 2.8 2.5 2.8 3.3 4.3 5.8 7.0 7.8 8.1 7.7 7.8 7.9 7.8 7.4 7.5 7.5 7.2 6.5 5.9 5.8 5.5 5.6 5.3 5.3 5.3 6.4 6.5 6.7 6.9 6.9 7.5 7.3 6.7 6.9 6.8 6.3 6.0 6.4 6.8 7.3 7.1 5.4
3.4 3.4 3.5 3.4 3.2 3.0 2.8 2.7 3.0 4.0 5.3 6.4 7.4 7.9 7.9 7.7 7.9 7.6 7.5 7.2 7.5 7.2 6.6 6.3 6.0 6.0 5.6 5.9 5.9 5.4 6.5 6.9 7.0 7.1 7.1 7.4 7.7 7.1 6.5 6.5 6.6 6.7 7.1 6.8 6.8 5.9 6.4
3.6 3.6 3.5 3.4 3.2 3.0 3.1 2.7 2.8 3.5 4.7 5.8 6.7 7.4 7.7 7.6 7.6 7.7 7.6 7.3 7.1 6.9 6.9 6.5 6.5 6.1 6.0 5.7 5.7 5.7 5.9 6.8 6.7 7.2 7.1 7.7 7.4 6.7 6.4 6.9 7.1 6.6 6.6 6.7 7.0 7.2 7.1
3.9 3.9 3.7 3.4 3.2 3.0 3.2 3.0 2.8 3.0 4.1 5.4 6.3 6.9 7.3 7.3 7.0 6.8 7.2 7.1 7.1 7.1 6.5 6.3 6.3 6.0 6.0 5.8 5.9 5.7 5.5 6.0 6.5 6.6 7.4 7.5 7.8 7.4 5.9 5.6 6.0 5.6 6.2 6.9 7.3 7.6 7.2
4.1 4.1 3.8 3.6 3.3 3.3 3.0 3.1 3.0 2.8 3.5 4.6 5.9 6.3 6.8 6.9 7.1 6.8 6.5 6.7 6.7 6.5 7.1 6.7 6.7 6.5 5.8 5.2 6.0 5.6 5.3 5.5 6.4 6.5 6.4 7.1 7.5 7.8 7.6 7.7 7.5 7.1 6.7 6.8 7.0 6.7 7.2
4.4 4.2 4.0 3.7 3.5 3.4 3.2 3.1 3.0 3.1 3.0 3.7 4.8 5.7 6.4 6.3 6.5 6.7 6.4 6.1 6.5 6.8 6.1 6.6 6.2 6.0 5.5 5.1 5.2 5.3 5.2 5.6 5.7 6.6 6.5 6.3 6.2 6.9 7.5 7.8 7.7 7.3 7.4 7.7 7.4 7.2 7.2
4.8 4.7 4.2 3.9 3.6 3.5 3.4 3.2 2.9 3.0 3.1 3.6 4.1 4.8 5.7 6.2 6.1 6.3 6.2 6.2 6.4 6.1 6.6 6.2 5.7 6.0 5.7 6.4 5.8 5.9 5.7 5.8 5.9 6.4 6.5 6.5 6.3 6.6 7.0 7.6 7.9 7.7 7.8 7.5 7.3 7.0 7.1
4.8 4.8 4.4 4.1 4.0 3.7 3.6 3.4 3.1 3.0 2.9 2.9 3.3 4.4 5.1 5.9 6.0 6.0 6.3 6.3 6.5 6.5 6.1 6.3 6.1 5.9 5.7 5.8 5.5 5.9 6.2 6.3 6.2 6.5 6.6 6.9 6.4 6.5 7.0 7.6 7.0 7.2 7.3 7.5 7.9 7.8 7.4
4.7 4.9 4.7 4.4 4.2 3.9 3.7 3.6 3.3 3.1 3.0 2.9 2.9 3.4 4.0 5.0 5.8 6.2 6.4 6.4 6.8 7.0 6.7 6.1 6.3 6.5 6.0 5.4 6.2 6.4 6.5 6.4 6.3 6.4 6.4 7.0 6.8 6.4 6.3 6.6 7.2 7.4 7.5 7.1 6.9 6.8 7.5
4.7 4.8 4.9 4.7 4.5 4.3 3.9 3.8 3.7 3.2 3.0 2.9 3.0 3.1 3.7 4.7 5.3 6.0 6.3 6.2 6.3 6.6 7.0 6.5 6.5 6.7 5.8 5.7 5.9 6.2 6.9 6.6 6.6 6.8 6.8 6.6 6.9 6.8 6.4 6.3 6.1 6.3 7.2 7.5 7.6 7.3 7.9
5.0 5.0 5.1 4.9 4.9 4.6 4.4 4.1 3.9 3.5 3.0 3.1 3.2 3.2 3.6 4.6 5.3 5.7 6.1 6.1 6.1 6.1 6.4 6.3 6.7 6.7 5.8 5.6 5.9 6.5 7.0 7.2 6.6 6.5 6.6 6.6 6.6 6.5 6.2 6.4 7.0 6.6 7.0 7.6 7.7 6.5 6.9
5.2 5.2 5.3 5.1 5.0 4.9 4.9 4.5 4.1 3.8 3.3 3.1 3.3 3.3 3.5 4.1 4.9 5.5 5.9 5.8 5.9 6.0 6.1 6.2 6.6 6.4 6.4 6.4 6.6 6.9 6.9 7.0 6.6 6.6 6.5 6.6 6.5 6.4 6.4 6.3 6.3 6.6 7.2 7.5 7.4 7.2 7.3
5.2 5.2 5.3 5.3 5.2 5.1 5.1 4.8 4.6 4.0 3.5 3.3 3.3 3.5 3.5 3.5 4.1 5.0 5.5 5.8 5.7 5.9 6.0 6.2 6.0 6.0 6.1 6.1 6.3 6.4 6.7 7.1 6.9 7.0 6.9 6.8 6.8 7.1 7.2 6.9 7.0 7.1 7.2 7.3 7.8 7.6 7.3
Wind_Speed
31 31 31 31 30 30 28 26 25 21 16 12 11 9 8 8 8 10 12 12 13 14 11 12 15 19 3 5 7 4 4 6 15 10 12 9 7 6 7 7 5 7 4 4 1 3 2
32 31 32 32 31 30 29 28 24 22 17 12 7 4 3 6 10 12 15 14 14 15 13 12 11 17 5 13 7 7 3 12 11 11 10 7 9 9 6 5 10 8 11 2 3 1 1
32 32 33 33 32 31 30 28 24 21 15 10 6 8 6 9 11 13 15 17 17 17 15 12 9 7 11 13 3 5 6 8 8 14 8 6 4 9 5 2 6 4 7 1 2 3 2
33 32 33 33 33 32 30 27 26 21 18 15 13 12 10 10 13 15 17 19 22 21 20 14 11 3 10 14 29 13 6 5 6 7 3 5 4 1 4 3 1 10 6 4 4 6 2
33 34 32 32 33 31 30 27 25 22 17 16 14 13 13 12 13 17 18 21 27 25 18 16 4 3 10 9 10 15 9 5 7 5 3 2 6 4 3 4 3 1 6 6 1 8 3
34 34 35 33 33 33 30 28 26 23 20 18 16 15 14 14 16 18 21 24 19 6 3 3 4 3 11 11 9 9 8 7 4 8 4 4 4 4 3 5 10 7 5 6 7 8 5
29 32 33 34 33 32 32 29 27 24 21 20 19 17 16 15 16 17 10 4 5 5 3 5 9 5 19 10 11 13 12 8 5 4 7 4 5 15 9 9 6 6 6 6 7 8 7
31 30 30 31 31 33 33 30 28 26 24 22 20 19 18 18 17 16 5 4 3 2 10 11 13 10 18 12 7 17 17 9 7 10 7 4 15 8 8 7 8 5 7 5 2 4 5
35 35 33 29 28 30 31 32 30 26 24 24 22 21 21 23 22 4 2 3 5 4 4 7 7 8 6 6 10 18 24 7 13 13 15 9 5 8 9 7 9 7 7 5 5 5 3
36 37 36 33 29 29 28 29 30 28 27 25 24 24 23 25 4 4 1 4 6 2 4 4 4 5 4 5 5 15 19 14 7 17 14 4 8 20 9 11 10 15 9 6 10 7 5
35 36 36 38 33 31 29 28 27 29 28 27 28 25 23 16 3 4 2 7 4 2 5 14 2 6 8 7 4 12 19 4 14 11 8 12 14 19 19 20 8 7 6 10 8 10 6
35 35 36 36 37 35 33 32 31 29 28 27 29 28 22 4 2 3 8 3 1 3 4 9 9 8 4 13 5 17 19 8 3 8 4 9 8 11 13 7 9 6 7 6 5 3 0
33 35 36 36 36 37 36 35 35 34 32 31 31 30 15 4 2 4 2 2 3 2 3 6 8 8 8 6 6 4 18 18 7 12 14 5 4 3 10 8 4 7 9 2 2 0 5
37 34 35 36 36 37 38 37 37 37 37 35 30 26 2 1 7 3 1 1 2 4 5 4 5 12 7 3 8 7 16 19 12 4 6 6 4 8 7 17 10 16 13 6 8 5 4
37 37 35 34 35 36 37 39 38 38 39 39 24 4 2 4 8 3 3 2 5 5 5 4 6 6 6 4 2 10 9 22 16 9 8 8 4 4 5 4 11 7 11 7 6 1 4
36 37 37 38 34 34 35 37 38 40 39 39 6 3 3 6 8 4 3 3 4 9 9 4 2 2 4 6 8 9 8 19 20 10 5 6 5 3 3 5 2 14 8 6 1 8 5
36 37 37 38 38 37 35 35 38 39 40 35 3 3 4 7 2 2 2 4 5 9 11 5 5 4 3 3 1 7 4 10 23 18 4 6 5 2 4 8 15 4 12 3 5 5 9
36 37 37 37 38 37 38 36 36 37 40 16 4 3 4 4 4 3 1 8 15 6 7 7 1 5 4 3 3 4 5 8 24 19 10 7 6 6 11 4 5 3 10 7 8 12 3
35 36 36 37 37 37 37 36 35 38 38 7 2 2 3 5 4 4 4 6 4 11 8 5 4 4 1 4 4 5 5 11 9 20 11 7 4 5 4 4 3 12 10 20 4 4 8
34 35 36 36 36 36 36 36 35 36 39 6 3 4 4 4 2 2 6 3 5 7 3 7 6 3 12 5 3 7 8 8 17 9 19 6 4 7 12 19 6 2 11 3 5 3 8
33 34 35 35 36 36 36 36 35 34 38 4 3 3 2 4 4 8 7 4 4 7 4 6 5 4 6 5 10 8 4 6 10 9 7 17 4 5 6 11 11 9 9 16 11 20 8
33 34 34 35 34 35 35 34 31 29 29 3 3 4 2 3 4 6 5 4 6 10 3 5 4 9 11 11 10 15 17 5 5 6 5 6 6 1 3 9 16 12 18 13 18 11 20
33 33 34 35 34 34 34 33 31 25 16 2 2 3 3 5 4 4 3 6 11 15 9 8 14 17 15 17 14 18 14 12 11 4 5 4 8 7 9 1 5 1 19 21 16 15 14
33 34 35 35 34 33 34 32 29 23 13 2 2 3 2 4 1 3 9 11 14 15 17 22 16 12 5 12 11 10 14 15 15 17 14 5 7 4 3 4 5 7 12 15 20 16 16
34 34 35 35 35 34 33 33 28 22 17 1 2 2 2 3 3 9 8 4 13 13 15 14 15 12 13 9 3 3 3 3 9 9 11 18 11 2 5 3 4 3 5 16 13 13 7
34 36 36 35 36 36 35 32 28 22 16 2 3 2 1 3 4 4 9 3 6 6 6 6 11 11 5 4 3 4 4 4 3 5 3 6 5 8 4 5 11 10 4 4 4 11 10
33 35 36 37 38 37 36 33 27 19 14 3 2 3 1 3 3 3 3 5 5 5 4 5 13 9 8 2 3 3 3 3 3 8 6 5 3 8 4 4 6 6 4 2 9 12 4
33 34 36 38 40 39 36 31 25 17 12 3 4 5 2 3 6 3 2 6 5 3 4 7 7 1 3 5 2 2 2 4 2 2 6 7 6 3 3 3 7 7 3 9 3 2 3
33 35 37 38 40 40 36 29 22 16 10 6 1 4 2 3 5 3 6 7 5 2 3 3 3 4 3 3 3 4 3 1 3 3 1 3 0 4 5 4 2 4 3 5 4 3 4
Wind_Direction
13 7 2 359 360 355 354 352 352 348 341 327 317 328 335 331 327 329 327 336 328 325 313 332 339 321 238 215 247 279 320 244 179 158 186 184 168 171 172 179 165 194 275 231 174 100 96
9 11 4 4 2 358 355 354 352 349 344 334 330 345 339 315 311 312 311 317 316 315 313 312 320 326 228 235 259 269 195 147 170 170 192 180 183 189 197 205 180 197 229 320 144 290 41
11 12 7 4 4 360 2 359 359 353 353 356 348 341 341 328 330 318 311 305 306 311 303 284 284 304 248 213 225 51 161 177 176 178 167 211 212 165 170 298 197 176 167 157 188 182 213
11 13 9 7 6 4 3 4 8 8 9 6 4 351 349 346 332 324 315 308 303 296 298 285 270 259 276 208 246 276 302 214 191 185 138 234 117 84 173 304 117 160 101 152 251 157 298
12 10 12 8 6 9 5 7 5 7 4 2 357 351 348 351 335 326 319 307 298 296 287 274 245 127 275 216 208 233 229 200 147 155 179 294 126 188 175 151 52 118 173 159 191 194 132
7 11 9 9 9 9 9 7 6 6 1 356 354 349 346 345 337 334 324 312 303 308 328 179 237 41 251 222 172 186 188 151 143 131 114 150 134 170 161 135 186 192 151 172 167 202 158
6 5 8 7 7 10 9 8 8 6 2 357 352 351 348 342 339 337 337 358 12 347 1 207 181 269 293 284 161 178 164 147 131 119 165 204 146 199 181 172 154 154 187 174 184 186 139
10 8 2 1 6 6 6 7 6 6 3 360 355 354 348 343 340 327 325 98 204 253 300 246 220 213 253 272 210 180 161 151 159 177 142 151 212 178 170 176 202 196 174 200 65 180 133
9 8 3 1 0 0 360 359 1 2 1 357 354 351 345 337 327 342 93 207 115 115 265 282 217 202 232 304 222 184 170 143 169 165 188 183 180 169 174 187 195 215 174 182 161 112 60
10 10 9 8 2 3 358 356 351 357 354 352 348 343 342 342 27 316 272 129 162 239 295 280 232 177 184 289 265 181 184 146 172 187 177 210 190 180 185 199 179 217 186 156 147 126 189
7 9 12 9 6 1 1 356 350 348 344 345 342 337 332 330 266 321 221 162 185 258 335 340 114 142 137 227 275 186 189 228 170 160 154 203 171 185 190 195 158 210 144 147 166 171 126
8 4 10 10 12 8 4 357 352 349 346 341 335 328 327 334 327 281 152 184 19 10 283 356 0 344 195 239 278 156 182 233 189 148 150 182 168 174 188 176 169 159 99 54 71 105 254
10 9 3 4 5 9 7 5 0 354 349 342 335 327 318 265 273 317 53 320 323 124 301 360 324 327 356 266 227 226 181 198 179 153 174 158 182 125 160 156 138 145 144 59 11 316 211
11 7 7 4 3 2 3 3 1 358 353 343 336 325 303 59 331 31 59 15 31 279 18 178 276 295 282 298 224 223 177 193 242 165 130 143 194 171 177 189 173 176 171 152 174 160 195
12 10 9 6 4 3 1 357 356 355 350 345 338 319 43 2 21 49 67 26 215 345 340 330 311 41 332 280 186 216 187 193 206 197 154 156 200 180 167 128 155 193 198 168 108 56 126
10 10 8 7 6 3 1 359 355 352 350 344 325 336 17 353 57 47 68 268 327 351 346 317 290 112 7 312 325 195 193 202 201 199 159 155 115 212 175 97 71 187 147 197 353 160 201
9 9 8 8 6 5 359 0 356 353 351 343 15 24 302 336 53 69 61 274 304 324 331 333 338 318 227 299 296 311 210 184 196 208 218 144 118 225 128 203 183 137 193 168 129 153 203
8 7 8 7 5 6 3 1 357 354 352 354 342 31 301 16 52 25 0 308 312 319 302 279 293 233 245 283 259 252 302 236 193 201 189 197 126 160 199 310 192 150 179 167 196 212 209
5 5 5 6 5 4 4 2 359 354 357 337 6 299 319 59 39 330 284 302 273 345 329 352 293 269 260 307 304 251 293 288 250 212 197 178 164 115 107 357 313 205 202 201 167 128 203
2 2 3 4 4 3 5 1 1 355 352 3 25 6 335 23 357 65 328 269 353 305 326 340 277 340 352 277 212 283 306 314 332 272 233 175 164 167 193 204 119 179 202 165 165 137 190
359 359 360 2 3 2 3 5 1 360 351 33 38 31 103 313 330 328 316 283 331 6 5 310 310 357 358 292 319 249 269 313 277 264 306 230 200 169 189 160 174 170 180 201 192 215 187
359 358 357 359 1 360 1 2 2 4 354 37 24 345 292 265 314 330 322 301 344 330 276 305 246 306 313 284 265 291 309 316 280 301 226 202 225 55 264 189 188 190 197 196 221 223 226
358 357 356 357 358 358 357 360 1 6 19 356 331 306 267 284 322 37 260 338 308 314 290 232 297 293 287 272 266 257 265 248 252 269 314 164 163 171 236 264 122 24 194 200 213 217 204
357 358 357 357 356 355 355 356 357 358 10 207 285 289 275 278 58 246 311 310 305 309 292 292 301 291 257 345 307 237 234 243 250 255 231 229 146 126 214 132 203 223 197 196 207 215 211
358 357 358 357 354 353 353 352 352 353 349 209 303 297 301 295 218 307 312 263 312 296 285 282 283 265 283 280 264 276 187 211 235 230 221 211 183 171 170 211 296 332 201 195 189 235 199
357 358 358 356 353 352 350 350 350 349 348 349 274 245 326 304 276 262 331 277 307 320 313 264 318 315 215 187 199 231 184 202 191 162 337 105 116 190 157 178 206 228 238 220 102 235 195
357 357 357 356 354 351 351 350 350 352 347 7 264 278 233 261 275 14 295 316 303 297 273 303 341 337 345 226 262 301 285 90 253 155 153 143 151 199 175 202 278 245 206 120 163 239 192
356 355 355 354 354 352 352 352 353 355 354 22 267 266 199 280 280 243 226 311 315 302 306 314 327 18 295 340 311 236 249 216 215 162 163 167 154 178 190 188 257 3 84 169 260 320 320
352 353 353 353 353 353 353 355 358 354 5 358 329 2 310 247 256 270 251 241 190 245 292 317 275 299 322 323 360 312 298 228 197 193 176 177 142 183 185 188 29 346 348 312 295 289 326